Location: Zagreb
(45.8000°N, 16.0000°E)
Time: 21:16:03
(UTC+01:00)

Vanguard 1 - All Passes

Search period start: 25 January 2022 00:00
Search period end: 04 February 2022 00:00
Orbit: 652 x 3830 km, 34.2° (Epoch: 24 January)

Date Brightness Start Highest point End Pass type
(mag) Time Alt. Az. Time Alt. Az. Time Alt. Az.
25 Jan - 08:52:32 10° SSW 08:58:10 17° SSE 09:02:22 10° SE daylight
25 Jan - 11:12:46 10° SW 11:18:11 25° S 11:22:11 10° SE daylight
25 Jan - 13:34:10 10° WSW 13:37:24 17° SSW 13:40:24 10° SSE daylight
26 Jan - 09:12:14 10° SSW 09:19:00 21° SSE 09:23:43 10° ESE daylight
26 Jan - 11:33:28 10° WSW 11:38:51 26° S 11:42:52 10° SE daylight
26 Jan - 13:55:28 10° SW 13:57:59 14° SSW 14:00:21 10° SSE daylight
27 Jan - 07:13:32 10° S 07:19:00 14° SSE 07:23:21 10° SE daylight
27 Jan - 09:32:25 10° SW 09:39:47 25° S 09:44:45 10° ESE daylight
27 Jan - 11:54:19 10° WSW 11:59:31 25° S 12:03:26 10° SE daylight
27 Jan - 14:17:41 10° SW 14:18:29 10° SSW 14:19:17 10° SSW daylight
28 Jan - 07:32:07 10° SSW 07:39:55 19° SSE 07:45:29 10° ESE daylight
28 Jan - 09:52:54 10° SW 10:00:34 29° S 10:05:36 10° ESE daylight
28 Jan - 12:15:17 10° WSW 12:20:07 23° SSW 12:23:52 10° SE daylight
29 Jan - 07:51:37 10° SSW 08:00:49 24° SSE 08:06:56 10° ESE daylight
29 Jan - 10:13:36 10° WSW 10:21:19 31° S 10:26:20 10° ESE daylight
29 Jan - 12:36:24 10° WSW 12:40:40 20° SSW 12:44:07 10° SSE daylight
30 Jan - 05:53:04 10° S 06:00:11 15° SSE 06:05:47 10° ESE visible
30 Jan - 08:11:38 10° SW 08:21:42 28° SSE 08:28:03 10° ESE daylight
30 Jan - 10:34:27 10° WSW 10:42:02 32° S 10:46:57 10° SE daylight
30 Jan - 12:57:45 10° WSW 13:01:10 16° SSW 13:04:03 10° SSE daylight
31 Jan - 06:11:12 10° SSW 06:21:08 20° SSE 06:28:11 10° ESE visible
31 Jan - 08:32:01 10° SW 08:42:33 33° S 08:48:57 10° ESE daylight
31 Jan - 10:55:26 10° WSW 11:02:42 31° SSW 11:07:29 10° SE daylight
31 Jan - 13:19:42 10° SW 13:21:36 12° SSW 13:23:19 10° S daylight
01 Feb - 06:30:21 10° SSW 06:42:04 25° SSE 06:49:48 10° ESE visible
01 Feb - 08:52:40 10° SW 09:03:22 36° S 09:09:44 10° ESE daylight
01 Feb - 11:16:31 10° WSW 11:23:18 28° SSW 11:27:54 10° SE daylight
02 Feb - 04:32:51 10° S 04:40:48 14° SSE 04:47:15 10° ESE visible
02 Feb - 06:50:07 10° SW 07:03:00 30° SSE 07:11:02 10° ESE visible
02 Feb - 09:13:31 10° WSW 09:24:09 38° S 09:30:25 10° ESE daylight
02 Feb - 11:37:43 10° WSW 11:43:50 24° SSW 11:48:08 10° SSE daylight
03 Feb - 04:50:13 10° S 05:01:44 20° SSE 05:10:14 10° ESE visible
03 Feb - 07:10:20 10° SW 07:23:56 35° SSE 07:32:03 10° ESE daylight
03 Feb - 09:34:31 10° WSW 09:44:54 38° S 09:51:02 10° ESE daylight
03 Feb - 11:59:06 10° WSW 12:04:16 20° SSW 12:08:09 10° SSE daylight
